Time,TemperatureF,DewpointF,PressureIn,WindDirection,WindDirectionDegrees,WindSpeedMPH,WindSpeedGustMPH,Humidity,HourlyPrecipIn,Conditions,Clouds,dailyrainin,SoftwareType,DateUTC
2013-06-09 00:01:00,56.3,51.5,30.13,NW,315,0.0,0.0,84,0.00,,---,0.10,VWS V14.01,2013-06-09 04:01:00,
2013-06-09 00:02:00,56.3,51.5,30.13,NW,315,0.0,0.0,84,0.00,,---,0.00,VWS V14.01,2013-06-09 04:02:00,
2013-06-09 00:07:00,56.1,51.3,30.14,NW,315,2.0,2.0,84,0.00,,---,0.00,VWS V14.01,2013-06-09 04:07:00,
2013-06-09 00:12:00,56.1,51.3,30.13,WNW,292,0.0,0.0,84,0.00,,---,0.00,VWS V14.01,2013-06-09 04:12:00,
2013-06-09 00:17:00,55.9,51.1,30.13,North,0,2.4,2.4,84,0.00,,---,0.00,VWS V14.01,2013-06-09 04:17:00,
2013-06-09 00:22:00,55.9,51.1,30.13,NW,315,1.1,1.1,84,0.00,,---,0.00,VWS V14.01,2013-06-09 04:22:00,
2013-06-09 00:27:00,55.9,51.1,30.13,NW,315,5.1,5.1,84,0.00,,---,0.00,VWS V14.01,2013-06-09 04:27:00,
2013-06-09 00:32:00,55.9,51.1,30.14,North,0,0.8,0.8,84,0.00,,---,0.00,VWS V14.01,2013-06-09 04:32:00,
2013-06-09 00:37:00,55.7,51.0,30.14,North,0,0.0,0.0,84,0.00,,---,0.00,VWS V14.01,2013-06-09 04:37:00,
2013-06-09 00:42:00,55.7,51.0,30.14,WNW,292,0.0,0.0,84,0.00,,---,0.00,VWS V14.01,2013-06-09 04:42:00,
2013-06-09 00:47:00,55.7,51.0,30.14,North,0,0.0,0.0,84,0.00,,---,0.00,VWS V14.01,2013-06-09 04:47:00,
2013-06-09 00:52:00,55.5,50.8,30.14,NNW,338,0.6,0.6,84,0.00,,---,0.00,VWS V14.01,2013-06-09 04:52:00,
2013-06-09 00:57:00,55.5,50.8,30.14,NW,315,0.0,0.0,84,0.00,,---,0.00,VWS V14.01,2013-06-09 04:57:00,
2013-06-09 01:02:00,55.5,50.8,30.14,NW,315,0.0,0.0,84,0.00,,---,0.00,VWS V14.01,2013-06-09 05:02:00,
2013-06-09 01:07:00,55.5,50.8,30.14,NW,315,0.0,0.0,84,0.00,,---,0.00,VWS V14.01,2013-06-09 05:07:00,
2013-06-09 01:12:00,55.4,50.7,30.14,West,270,0.0,0.0,84,0.00,,---,0.00,VWS V14.01,2013-06-09 05:12:00,
2013-06-09 01:17:00,55.4,50.7,30.15,NNE,22,0.0,0.0,84,0.00,,---,0.00,VWS V14.01,2013-06-09 05:17:00,
2013-06-09 01:22:00,55.4,50.7,30.15,WNW,292,0.0,0.0,84,0.00,,---,0.00,VWS V14.01,2013-06-09 05:22:00,
2013-06-09 01:27:00,55.2,50.5,30.15,NNW,338,0.0,0.0,84,0.00,,---,0.00,VWS V14.01,2013-06-09 05:27:00,
2013-06-09 01:32:00,55.2,50.5,30.15,NW,315,1.1,1.1,84,0.00,,---,0.00,VWS V14.01,2013-06-09 05:32:00,
2013-06-09 01:37:00,55.2,50.8,30.15,NW,315,0.0,0.0,85,0.00,,---,0.00,VWS V14.01,2013-06-09 05:37:00,
2013-06-09 01:42:00,55.2,50.8,30.15,NW,315,2.6,2.6,85,0.00,,---,0.00,VWS V14.01,2013-06-09 05:42:00,
2013-06-09 01:47:00,55.2,50.8,30.15,NW,315,0.0,0.0,85,0.00,,---,0.00,VWS V14.01,2013-06-09 05:47:00,
2013-06-09 01:52:00,55.2,50.8,30.15,WNW,292,0.0,0.0,85,0.00,,---,0.00,VWS V14.01,2013-06-09 05:52:00,
2013-06-09 01:57:00,55.2,50.8,30.16,NNW,338,0.0,0.0,85,0.00,,---,0.00,VWS V14.01,2013-06-09 05:57:00,
2013-06-09 02:02:00,55.2,50.8,30.15,West,270,0.0,0.0,85,0.00,,---,0.00,VWS V14.01,2013-06-09 06:02:00,
2013-06-09 02:07:00,55.0,50.6,30.15,SW,225,0.0,0.0,85,0.00,,---,0.00,VWS V14.01,2013-06-09 06:07:00,
2013-06-09 02:12:00,55.0,50.6,30.15,WSW,248,0.0,0.0,85,0.00,,---,0.00,VWS V14.01,2013-06-09 06:12:00,
2013-06-09 02:17:00,55.0,50.3,30.16,WNW,292,0.0,0.0,84,0.00,,---,0.00,VWS V14.01,2013-06-09 06:17:00,
2013-06-09 02:22:00,55.0,50.3,30.15,WSW,248,0.0,0.0,84,0.00,,---,0.00,VWS V14.01,2013-06-09 06:22:00,
2013-06-09 02:27:00,55.0,50.3,30.15,WNW,292,0.0,0.0,84,0.00,,---,0.00,VWS V14.01,2013-06-09 06:27:00,
2013-06-09 02:32:00,55.0,50.3,30.15,NNW,338,0.0,0.0,84,0.00,,---,0.00,VWS V14.01,2013-06-09 06:32:00,
2013-06-09 02:37:00,54.8,50.1,30.15,NW,315,2.0,2.0,84,0.00,,---,0.00,VWS V14.01,2013-06-09 06:37:00,
2013-06-09 02:42:00,54.8,50.1,30.15,NW,315,0.0,0.0,84,0.00,,---,0.00,VWS V14.01,2013-06-09 06:42:00,
2013-06-09 02:47:00,54.6,49.9,30.15,WNW,292,0.0,0.0,84,0.00,,---,0.00,VWS V14.01,2013-06-09 06:47:00,
2013-06-09 02:52:00,54.6,49.9,30.15,NW,315,0.0,0.0,84,0.00,,---,0.00,VWS V14.01,2013-06-09 06:52:00,
2013-06-09 02:57:00,54.5,49.8,30.15,NW,315,0.0,0.0,84,0.00,,---,0.00,VWS V14.01,2013-06-09 06:57:00,
2013-06-09 03:02:00,54.5,49.8,30.15,NW,315,0.0,0.0,84,0.00,,---,0.00,VWS V14.01,2013-06-09 07:02:00,
2013-06-09 03:07:00,54.5,49.8,30.15,North,0,0.0,0.0,84,0.00,,---,0.00,VWS V14.01,2013-06-09 07:07:00,
2013-06-09 03:12:00,54.3,49.6,30.15,NW,315,0.0,0.0,84,0.00,,---,0.00,VWS V14.01,2013-06-09 07:12:00,
2013-06-09 03:17:00,54.3,49.6,30.15,West,270,0.0,0.0,84,0.00,,---,0.00,VWS V14.01,2013-06-09 07:17:00,
2013-06-09 03:22:00,54.3,49.6,30.15,West,270,0.0,0.0,84,0.00,,---,0.00,VWS V14.01,2013-06-09 07:22:00,
2013-06-09 03:27:00,54.3,49.6,30.15,West,270,0.0,0.0,84,0.00,,---,0.00,VWS V14.01,2013-06-09 07:27:00,
2013-06-09 03:32:00,54.3,49.6,30.15,West,270,0.0,0.0,84,0.00,,---,0.00,VWS V14.01,2013-06-09 07:32:00,
2013-06-09 03:37:00,54.3,49.6,30.15,NW,315,0.0,0.0,84,0.00,,---,0.00,VWS V14.01,2013-06-09 07:37:00,
2013-06-09 03:42:00,54.1,49.4,30.15,NW,315,0.0,0.0,84,0.00,,---,0.00,VWS V14.01,2013-06-09 07:42:00,
2013-06-09 03:47:00,54.1,49.4,30.16,WNW,292,0.0,0.0,84,0.00,,---,0.00,VWS V14.01,2013-06-09 07:47:00,
2013-06-09 03:52:00,54.1,49.4,30.16,NW,315,0.0,0.0,84,0.00,,---,0.00,VWS V14.01,2013-06-09 07:52:00,
2013-06-09 03:57:00,54.1,49.4,30.16,NW,315,0.0,0.0,84,0.00,,---,0.00,VWS V14.01,2013-06-09 07:57:00,
2013-06-09 04:02:00,54.1,49.4,30.16,NNW,338,0.0,0.0,84,0.00,,---,0.00,VWS V14.01,2013-06-09 08:02:00,
2013-06-09 04:07:00,54.1,49.4,30.16,NW,315,0.0,0.0,84,0.00,,---,0.00,VWS V14.01,2013-06-09 08:07:00,
2013-06-09 04:12:00,54.1,49.4,30.16,NW,315,0.0,0.0,84,0.00,,---,0.00,VWS V14.01,2013-06-09 08:12:00,
2013-06-09 04:17:00,54.1,49.4,30.16,NNW,338,0.0,0.0,84,0.00,,---,0.00,VWS V14.01,2013-06-09 08:17:00,
2013-06-09 04:22:00,54.1,49.7,30.16,NW,315,0.0,0.0,85,0.00,,---,0.00,VWS V14.01,2013-06-09 08:22:00,
2013-06-09 04:27:00,54.1,49.7,30.16,North,0,0.0,0.0,85,0.00,,---,0.00,VWS V14.01,2013-06-09 08:27:00,
2013-06-09 04:32:00,54.1,49.7,30.16,North,0,0.0,0.0,85,0.00,,---,0.00,VWS V14.01,2013-06-09 08:32:00,
2013-06-09 04:37:00,54.1,49.7,30.16,ESE,112,0.0,0.0,85,0.00,,---,0.00,VWS V14.01,2013-06-09 08:37:00,
2013-06-09 04:42:00,54.1,49.7,30.16,SSE,158,0.0,0.0,85,0.00,,---,0.00,VWS V14.01,2013-06-09 08:42:00,
2013-06-09 04:47:00,54.1,49.7,30.16,SE,135,0.0,0.0,85,0.00,,---,0.00,VWS V14.01,2013-06-09 08:47:00,
2013-06-09 04:52:00,54.1,49.7,30.17,NNE,22,0.0,0.0,85,0.00,,---,0.00,VWS V14.01,2013-06-09 08:52:00,
2013-06-09 04:57:00,54.1,49.7,30.17,NW,315,1.1,1.1,85,0.00,,---,0.00,VWS V14.01,2013-06-09 08:57:00,
2013-06-09 05:02:00,54.3,49.9,30.17,SE,135,0.0,0.0,85,0.00,,---,0.00,VWS V14.01,2013-06-09 09:02:00,
2013-06-09 05:07:00,54.3,49.9,30.18,SSE,158,0.0,0.0,85,0.00,,---,0.00,VWS V14.01,2013-06-09 09:07:00,
2013-06-09 05:12:00,54.3,49.9,30.17,SE,135,1.7,1.7,85,0.00,,---,0.00,VWS V14.01,2013-06-09 09:12:00,
2013-06-09 05:17:00,54.3,49.9,30.17,SSE,158,0.0,0.0,85,0.00,,---,0.00,VWS V14.01,2013-06-09 09:17:00,
2013-06-09 05:22:00,54.3,49.9,30.17,NNE,22,0.0,0.0,85,0.00,,---,0.00,VWS V14.01,2013-06-09 09:22:00,
2013-06-09 05:27:00,54.3,49.9,30.17,SE,135,1.3,1.3,85,0.00,,---,0.00,VWS V14.01,2013-06-09 09:27:00,
2013-06-09 05:32:00,54.3,49.9,30.17,WNW,292,0.0,0.0,85,0.00,,---,0.00,VWS V14.01,2013-06-09 09:32:00,
2013-06-09 05:37:00,54.3,49.9,30.18,NNW,338,0.0,0.0,85,0.00,,---,0.00,VWS V14.01,2013-06-09 09:37:00,
2013-06-09 05:42:00,54.3,49.9,30.18,NNE,22,0.0,0.0,85,0.00,,---,0.00,VWS V14.01,2013-06-09 09:42:00,
2013-06-09 05:47:00,54.3,49.9,30.18,SE,135,2.4,2.4,85,0.00,,---,0.00,VWS V14.01,2013-06-09 09:47:00,
2013-06-09 05:52:00,54.5,50.1,30.18,SE,135,0.0,0.0,85,0.00,,---,0.00,VWS V14.01,2013-06-09 09:52:00,
2013-06-09 05:57:00,54.3,49.9,30.18,WNW,292,0.0,0.0,85,0.00,,---,0.00,VWS V14.01,2013-06-09 09:57:00,
2013-06-09 06:02:00,54.5,50.1,30.18,WNW,292,0.0,0.0,85,0.00,,---,0.00,VWS V14.01,2013-06-09 10:02:00,
2013-06-09 06:07:00,54.5,50.1,30.18,SE,135,0.0,0.0,85,0.00,,---,0.00,VWS V14.01,2013-06-09 10:07:00,
2013-06-09 06:12:00,54.5,50.1,30.18,SSE,158,0.0,0.0,85,0.00,,---,0.00,VWS V14.01,2013-06-09 10:12:00,
2013-06-09 06:17:00,54.5,50.1,30.18,SE,135,0.8,0.8,85,0.00,,---,0.00,VWS V14.01,2013-06-09 10:17:00,
2013-06-09 06:22:00,54.5,50.1,30.18,SSE,158,0.0,0.0,85,0.00,,---,0.00,VWS V14.01,2013-06-09 10:22:00,
2013-06-09 06:27:00,54.5,50.1,30.19,North,0,0.0,0.0,85,0.00,,---,0.00,VWS V14.01,2013-06-09 10:27:00,
2013-06-09 06:32:00,54.5,50.1,30.19,NW,315,0.0,0.0,85,0.00,,---,0.00,VWS V14.01,2013-06-09 10:32:00,
2013-06-09 06:37:00,54.5,50.1,30.19,NNW,338,0.0,0.0,85,0.00,,---,0.00,VWS V14.01,2013-06-09 10:37:00,
2013-06-09 06:42:00,54.5,50.1,30.19,WNW,292,0.0,0.0,85,0.00,,---,0.00,VWS V14.01,2013-06-09 10:42:00,
2013-06-09 06:47:00,54.5,50.1,30.19,WNW,292,0.0,0.0,85,0.00,,---,0.00,VWS V14.01,2013-06-09 10:47:00,
2013-06-09 06:52:00,54.5,50.1,30.19,WNW,292,0.0,0.0,85,0.00,,---,0.00,VWS V14.01,2013-06-09 10:52:00,
2013-06-09 06:57:00,54.5,50.1,30.19,East,90,0.0,0.0,85,0.00,,---,0.00,VWS V14.01,2013-06-09 10:57:00,
2013-06-09 07:02:00,54.5,50.1,30.20,SE,135,0.0,0.0,85,0.00,,---,0.00,VWS V14.01,2013-06-09 11:02:00,
2013-06-09 07:07:00,54.5,50.1,30.20,SE,135,0.0,0.0,85,0.00,,---,0.00,VWS V14.01,2013-06-09 11:07:00,
2013-06-09 07:12:00,54.5,50.1,30.20,NW,315,0.0,0.0,85,0.00,,---,0.00,VWS V14.01,2013-06-09 11:12:00,
2013-06-09 07:17:00,54.5,50.4,30.20,SE,135,0.8,0.8,86,0.00,,---,0.00,VWS V14.01,2013-06-09 11:17:00,
2013-06-09 07:22:00,54.6,50.5,30.20,NNW,338,0.0,0.0,86,0.00,,---,0.00,VWS V14.01,2013-06-09 11:22:00,
2013-06-09 07:27:00,54.8,50.7,30.20,SE,135,1.1,1.1,86,0.00,,---,0.00,VWS V14.01,2013-06-09 11:27:00,
2013-06-09 07:32:00,54.6,50.5,30.20,SE,135,0.0,0.0,86,0.00,,---,0.00,VWS V14.01,2013-06-09 11:32:00,
2013-06-09 07:37:00,54.8,50.7,30.20,SE,135,4.4,4.4,86,0.00,,---,0.00,VWS V14.01,2013-06-09 11:37:00,
2013-06-09 07:42:00,55.0,50.9,30.20,NW,315,0.0,0.0,86,0.00,,---,0.00,VWS V14.01,2013-06-09 11:42:00,
2013-06-09 07:47:00,55.2,51.1,30.21,NNW,338,0.8,0.8,86,0.00,,---,0.00,VWS V14.01,2013-06-09 11:47:00,
2013-06-09 07:52:00,55.2,50.8,30.20,SE,135,3.1,3.1,85,0.00,,---,0.00,VWS V14.01,2013-06-09 11:52:00,
2013-06-09 07:57:00,55.2,50.8,30.21,NNW,338,1.1,1.1,85,0.00,,---,0.00,VWS V14.01,2013-06-09 11:57:00,
2013-06-09 08:02:00,55.4,51.0,30.21,WSW,248,0.0,0.0,85,0.00,,---,0.00,VWS V14.01,2013-06-09 12:02:00,
2013-06-09 08:07:00,55.5,51.1,30.21,NNW,338,3.8,3.8,85,0.00,,---,0.00,VWS V14.01,2013-06-09 12:07:00,
2013-06-09 08:12:00,55.7,51.3,30.22,North,0,0.0,0.0,85,0.00,,---,0.00,VWS V14.01,2013-06-09 12:12:00,
2013-06-09 08:17:00,55.7,51.3,30.22,NW,315,0.0,0.0,85,0.00,,---,0.00,VWS V14.01,2013-06-09 12:17:00,
2013-06-09 08:22:00,55.9,51.5,30.22,NW,315,0.0,0.0,85,0.00,,---,0.00,VWS V14.01,2013-06-09 12:22:00,
2013-06-09 08:27:00,55.9,51.5,30.22,WNW,292,3.1,3.1,85,0.00,,---,0.00,VWS V14.01,2013-06-09 12:27:00,
2013-06-09 08:32:00,55.9,51.5,30.22,NNW,338,1.5,1.5,85,0.00,,---,0.00,VWS V14.01,2013-06-09 12:32:00,
2013-06-09 08:37:00,56.1,51.3,30.22,NE,45,0.0,0.0,84,0.00,,---,0.00,VWS V14.01,2013-06-09 12:37:00,
2013-06-09 08:42:00,56.3,51.5,30.22,North,0,0.0,0.0,84,0.00,,---,0.00,VWS V14.01,2013-06-09 12:42:00,
2013-06-09 08:47:00,56.3,51.5,30.22,NW,315,1.5,1.5,84,0.00,,---,0.00,VWS V14.01,2013-06-09 12:47:00,
2013-06-09 08:52:00,56.4,51.6,30.22,NW,315,0.0,0.0,84,0.00,,---,0.00,VWS V14.01,2013-06-09 12:52:00,
2013-06-09 08:57:00,56.6,51.8,30.22,WNW,292,0.0,0.0,84,0.00,,---,0.00,VWS V14.01,2013-06-09 12:57:00,
2013-06-09 09:02:00,56.6,51.8,30.23,WNW,292,0.0,0.0,84,0.00,,---,0.00,VWS V14.01,2013-06-09 13:02:00,
2013-06-09 09:07:00,56.8,51.7,30.23,NW,315,0.0,0.0,83,0.00,,---,0.00,VWS V14.01,2013-06-09 13:07:00,
2013-06-09 09:12:00,56.8,51.7,30.23,North,0,0.0,0.0,83,0.00,,---,0.00,VWS V14.01,2013-06-09 13:12:00,
2013-06-09 09:17:00,56.8,51.7,30.23,WNW,292,1.1,1.1,83,0.00,,---,0.00,VWS V14.01,2013-06-09 13:17:00,
2013-06-09 09:22:00,57.0,51.6,30.23,North,0,0.0,0.0,82,0.00,,---,0.00,VWS V14.01,2013-06-09 13:22:00,
2013-06-09 09:27:00,57.0,51.6,30.23,NNW,338,1.1,1.1,82,0.00,,---,0.00,VWS V14.01,2013-06-09 13:27:00,
2013-06-09 09:32:00,57.2,51.8,30.23,SE,135,0.0,0.0,82,0.00,,---,0.00,VWS V14.01,2013-06-09 13:32:00,
2013-06-09 09:37:00,57.3,51.9,30.23,NW,315,0.0,0.0,82,0.00,,---,0.00,VWS V14.01,2013-06-09 13:37:00,
2013-06-09 09:42:00,57.3,51.5,30.23,NNW,338,2.0,2.0,81,0.00,,---,0.00,VWS V14.01,2013-06-09 13:42:00,
2013-06-09 09:47:00,57.3,51.5,30.23,NW,315,2.2,2.2,81,0.00,,---,0.00,VWS V14.01,2013-06-09 13:47:00,
2013-06-09 09:52:00,57.5,51.7,30.23,NNE,22,0.0,0.0,81,0.00,,---,0.00,VWS V14.01,2013-06-09 13:52:00,
2013-06-09 09:57:00,57.5,51.7,30.23,NNW,338,4.6,4.6,81,0.00,,---,0.00,VWS V14.01,2013-06-09 13:57:00,
2013-06-09 10:02:00,57.5,51.7,30.23,NW,315,0.0,0.0,81,0.00,,---,0.00,VWS V14.01,2013-06-09 14:02:00,
2013-06-09 10:07:00,57.5,51.4,30.23,NNW,338,0.0,0.0,80,0.00,,---,0.00,VWS V14.01,2013-06-09 14:07:00,
2013-06-09 10:12:00,57.7,51.6,30.23,NW,315,2.2,2.2,80,0.00,,---,0.00,VWS V14.01,2013-06-09 14:12:00,
2013-06-09 10:17:00,57.7,51.9,30.23,NNW,338,2.2,2.2,81,0.00,,---,0.00,VWS V14.01,2013-06-09 14:17:00,
2013-06-09 10:22:00,58.1,52.3,30.23,NW,315,5.3,5.3,81,0.00,,---,0.00,VWS V14.01,2013-06-09 14:22:00,
2013-06-09 10:27:00,58.4,52.3,30.23,WSW,248,0.6,0.6,80,0.00,,---,0.00,VWS V14.01,2013-06-09 14:27:00,
2013-06-09 10:32:00,58.6,52.5,30.23,NW,315,0.0,0.0,80,0.00,,---,0.00,VWS V14.01,2013-06-09 14:32:00,
2013-06-09 10:37:00,58.8,52.7,30.23,NW,315,0.0,0.0,80,0.00,,---,0.00,VWS V14.01,2013-06-09 14:37:00,
2013-06-09 10:42:00,58.8,52.3,30.24,NW,315,0.0,0.0,79,0.00,,---,0.19,VWS V14.01,2013-06-09 14:42:00,
2013-06-09 10:47:00,59.1,52.6,30.24,WNW,292,0.0,0.0,79,0.00,,---,0.00,VWS V14.01,2013-06-09 14:47:00,
2013-06-09 10:52:00,59.3,52.8,30.24,NNW,338,0.0,0.0,79,0.00,,---,0.00,VWS V14.01,2013-06-09 14:52:00,
2013-06-09 10:57:00,59.5,52.6,30.24,NW,315,0.0,0.0,78,0.00,,---,0.00,VWS V14.01,2013-06-09 14:57:00,
2013-06-09 11:02:00,59.7,52.8,30.24,NW,315,3.5,3.5,78,0.00,,---,0.00,VWS V14.01,2013-06-09 15:02:00,
2013-06-09 11:07:00,59.9,52.7,30.24,West,270,0.0,0.0,77,0.00,,---,0.00,VWS V14.01,2013-06-09 15:07:00,
2013-06-09 11:12:00,59.9,52.7,30.24,NW,315,8.0,8.0,77,0.00,,---,0.00,VWS V14.01,2013-06-09 15:12:00,
2013-06-09 11:17:00,60.0,52.8,30.24,SSE,158,0.0,0.0,77,0.00,,---,0.00,VWS V14.01,2013-06-09 15:17:00,
2013-06-09 11:22:00,60.4,53.2,30.24,NNW,338,1.7,1.7,77,0.00,,---,0.00,VWS V14.01,2013-06-09 15:22:00,
2013-06-09 11:27:00,60.6,53.0,30.24,NW,315,1.3,1.3,76,0.00,,---,0.00,VWS V14.01,2013-06-09 15:27:00,
2013-06-09 11:32:00,60.6,53.0,30.24,NNW,338,4.2,4.2,76,0.00,,---,0.00,VWS V14.01,2013-06-09 15:32:00,
2013-06-09 11:37:00,60.8,53.2,30.24,SSE,158,0.0,0.0,76,0.00,,---,0.00,VWS V14.01,2013-06-09 15:37:00,
2013-06-09 11:42:00,60.9,53.3,30.24,WNW,292,0.6,0.6,76,0.00,,---,0.00,VWS V14.01,2013-06-09 15:42:00,
2013-06-09 11:47:00,60.9,53.3,30.24,West,270,0.8,0.8,76,0.00,,---,0.00,VWS V14.01,2013-06-09 15:47:00,
2013-06-09 11:52:00,61.1,53.5,30.24,NW,315,0.0,0.0,76,0.00,,---,0.00,VWS V14.01,2013-06-09 15:52:00,
2013-06-09 11:57:00,61.1,53.1,30.25,NNW,338,3.3,3.3,75,0.00,,---,0.00,VWS V14.01,2013-06-09 15:57:00,
2013-06-09 12:02:00,61.1,53.1,30.24,NNE,22,0.0,0.0,75,0.00,,---,0.00,VWS V14.01,2013-06-09 16:02:00,
2013-06-09 12:07:00,61.5,53.5,30.24,NW,315,5.1,5.1,75,0.00,,---,0.00,VWS V14.01,2013-06-09 16:07:00,
2013-06-09 12:12:00,61.8,53.8,30.24,NNW,338,3.8,3.8,75,0.00,,---,0.00,VWS V14.01,2013-06-09 16:12:00,
2013-06-09 12:17:00,62.2,54.2,30.24,NE,45,3.1,3.1,75,0.00,,---,0.00,VWS V14.01,2013-06-09 16:17:00,
2013-06-09 12:22:00,62.4,54.4,30.24,WNW,292,0.0,0.0,75,0.00,,---,0.00,VWS V14.01,2013-06-09 16:22:00,
2013-06-09 12:27:00,62.7,54.7,30.23,NNW,338,0.0,0.0,75,0.00,,---,0.00,VWS V14.01,2013-06-09 16:27:00,
2013-06-09 12:32:00,62.9,54.9,30.24,NNW,338,0.0,0.0,75,0.00,,---,0.00,VWS V14.01,2013-06-09 16:32:00,
2013-06-09 12:37:00,63.3,54.9,30.23,WNW,292,0.0,0.0,74,0.00,,---,0.00,VWS V14.01,2013-06-09 16:37:00,
2013-06-09 12:42:00,63.5,54.7,30.23,NW,315,0.0,0.0,73,0.00,,---,0.00,VWS V14.01,2013-06-09 16:42:00,
2013-06-09 12:47:00,63.6,54.8,30.23,NE,45,0.0,0.0,73,0.00,,---,0.00,VWS V14.01,2013-06-09 16:47:00,
2013-06-09 12:52:00,63.6,54.0,30.24,NW,315,2.4,2.4,71,0.00,,---,0.00,VWS V14.01,2013-06-09 16:52:00,
2013-06-09 12:57:00,63.6,54.4,30.23,WNW,292,2.4,2.4,72,0.00,,---,0.00,VWS V14.01,2013-06-09 16:57:00,
2013-06-09 13:02:00,64.0,54.8,30.23,NW,315,2.4,2.4,72,0.00,,---,0.00,VWS V14.01,2013-06-09 17:02:00,
2013-06-09 13:07:00,64.5,54.9,30.23,NW,315,0.0,0.0,71,0.00,,---,0.00,VWS V14.01,2013-06-09 17:07:00,
2013-06-09 13:12:00,65.1,54.7,30.22,NW,315,1.3,1.3,69,0.00,,---,0.00,VWS V14.01,2013-06-09 17:12:00,
2013-06-09 13:17:00,65.4,55.0,30.22,West,270,0.0,0.0,69,0.00,,---,0.00,VWS V14.01,2013-06-09 17:17:00,
2013-06-09 13:22:00,66.0,54.7,30.22,WNW,292,0.0,0.0,67,0.00,,---,0.00,VWS V14.01,2013-06-09 17:22:00,
2013-06-09 13:27:00,66.7,55.4,30.22,NW,315,5.8,5.8,67,0.00,,---,0.00,VWS V14.01,2013-06-09 17:27:00,
2013-06-09 13:32:00,67.1,55.4,30.22,WNW,292,0.0,0.0,66,0.00,,---,0.00,VWS V14.01,2013-06-09 17:32:00,
2013-06-09 13:37:00,67.2,55.0,30.22,North,0,0.0,0.0,65,0.00,,---,0.00,VWS V14.01,2013-06-09 17:37:00,
2013-06-09 13:42:00,67.6,55.4,30.22,SE,135,0.0,0.0,65,0.00,,---,0.00,VWS V14.01,2013-06-09 17:42:00,
2013-06-09 13:47:00,68.0,55.8,30.22,WNW,292,0.0,0.0,65,0.00,,---,0.00,VWS V14.01,2013-06-09 17:47:00,
2013-06-09 13:52:00,68.1,55.0,30.23,WNW,292,0.0,0.0,63,0.00,,---,0.00,VWS V14.01,2013-06-09 17:52:00,
2013-06-09 13:57:00,68.0,55.0,30.23,NW,315,0.0,0.0,63,0.00,,---,0.00,VWS V14.01,2013-06-09 17:57:00,
2013-06-09 14:02:00,68.1,55.5,30.23,WSW,248,0.0,0.0,64,0.00,,---,0.00,VWS V14.01,2013-06-09 18:02:00,
2013-06-09 14:07:00,68.3,55.2,30.23,WSW,248,0.0,0.0,63,0.00,,---,0.00,VWS V14.01,2013-06-09 18:07:00,
2013-06-09 14:12:00,68.7,55.6,30.23,WNW,292,0.0,0.0,63,0.00,,---,0.00,VWS V14.01,2013-06-09 18:12:00,
2013-06-09 14:17:00,69.0,55.0,30.23,NW,315,1.3,1.3,61,0.00,,---,0.00,VWS V14.01,2013-06-09 18:17:00,
2013-06-09 14:22:00,69.4,55.8,30.23,NW,315,2.9,2.9,62,0.00,,---,0.00,VWS V14.01,2013-06-09 18:22:00,
2013-06-09 14:27:00,69.6,55.1,30.23,WNW,292,0.0,0.0,60,0.00,,---,0.00,VWS V14.01,2013-06-09 18:27:00,
2013-06-09 14:32:00,69.6,54.7,30.23,NNW,338,0.0,0.0,59,0.00,,---,0.00,VWS V14.01,2013-06-09 18:32:00,
2013-06-09 14:37:00,69.2,54.3,30.23,NE,45,0.0,0.0,59,0.00,,---,0.00,VWS V14.01,2013-06-09 18:37:00,
2013-06-09 14:42:00,69.0,54.1,30.23,NNE,22,0.0,0.0,59,0.00,,---,0.00,VWS V14.01,2013-06-09 18:42:00,
2013-06-09 14:47:00,68.9,54.0,30.23,NNE,22,0.0,0.0,59,0.00,,---,0.00,VWS V14.01,2013-06-09 18:47:00,
2013-06-09 14:52:00,69.0,54.5,30.22,NNE,22,0.0,0.0,60,0.00,,---,0.00,VWS V14.01,2013-06-09 18:52:00,
2013-06-09 14:57:00,69.4,55.4,30.22,SSE,158,0.0,0.0,61,0.00,,---,0.00,VWS V14.01,2013-06-09 18:57:00,
2013-06-09 15:02:00,69.4,54.9,30.22,SW,225,0.0,0.0,60,0.00,,---,0.00,VWS V14.01,2013-06-09 19:02:00,
2013-06-09 15:07:00,69.4,54.9,30.23,SW,225,0.0,0.0,60,0.00,,---,0.00,VWS V14.01,2013-06-09 19:07:00,
2013-06-09 15:12:00,69.2,54.7,30.23,NW,315,0.0,0.0,60,0.00,,---,0.00,VWS V14.01,2013-06-09 19:12:00,
2013-06-09 15:17:00,69.0,54.5,30.23,NW,315,0.0,0.0,60,0.00,,---,0.00,VWS V14.01,2013-06-09 19:17:00,
2013-06-09 15:22:00,68.9,54.5,30.23,SW,225,0.0,0.0,60,0.00,,---,0.00,VWS V14.01,2013-06-09 19:22:00,
2013-06-09 15:27:00,68.7,54.3,30.23,WSW,248,0.0,0.0,60,0.00,,---,0.00,VWS V14.01,2013-06-09 19:27:00,
2013-06-09 15:32:00,68.9,54.5,30.23,WNW,292,0.0,0.0,60,0.00,,---,0.00,VWS V14.01,2013-06-09 19:32:00,
2013-06-09 15:37:00,69.6,55.1,30.23,NW,315,0.0,0.0,60,0.00,,---,0.00,VWS V14.01,2013-06-09 19:37:00,
2013-06-09 15:42:00,69.9,55.8,30.23,NW,315,4.6,4.6,61,0.00,,---,0.00,VWS V14.01,2013-06-09 19:42:00,
2013-06-09 15:47:00,70.3,55.8,30.22,WNW,292,0.0,0.0,60,0.00,,---,0.00,VWS V14.01,2013-06-09 19:47:00,
2013-06-09 15:52:00,70.8,55.8,30.23,NW,315,0.0,0.0,59,0.00,,---,0.00,VWS V14.01,2013-06-09 19:52:00,
2013-06-09 15:57:00,71.2,54.7,30.23,NW,315,0.0,0.0,56,0.00,,---,0.00,VWS V14.01,2013-06-09 19:57:00,
2013-06-09 16:02:00,71.4,54.9,30.23,NW,315,0.0,0.0,56,0.00,,---,0.00,VWS V14.01,2013-06-09 20:02:00,
2013-06-09 16:07:00,71.7,55.2,30.23,NNW,338,0.0,0.0,56,0.00,,---,0.00,VWS V14.01,2013-06-09 20:07:00,
2013-06-09 16:12:00,72.3,55.7,30.23,NNW,338,0.0,0.0,56,0.00,,---,0.00,VWS V14.01,2013-06-09 20:12:00,
2013-06-09 16:17:00,72.6,55.5,30.23,NW,315,0.0,0.0,55,0.00,,---,0.00,VWS V14.01,2013-06-09 20:17:00,
2013-06-09 16:22:00,73.0,54.9,30.22,NW,315,0.0,0.0,53,0.00,,---,0.00,VWS V14.01,2013-06-09 20:22:00,
2013-06-09 16:27:00,73.0,54.9,30.23,NW,315,0.0,0.0,53,0.00,,---,0.00,VWS V14.01,2013-06-09 20:27:00,
2013-06-09 16:32:00,73.2,54.0,30.22,WNW,292,0.0,6.7,51,0.00,,---,0.00,VWS V14.01,2013-06-09 20:32:00,
2013-06-09 16:37:00,73.2,54.5,30.22,NE,45,0.0,0.0,52,0.00,,---,0.00,VWS V14.01,2013-06-09 20:37:00,
2013-06-09 16:42:00,73.2,54.0,30.22,NW,315,0.0,0.0,51,0.00,,---,0.00,VWS V14.01,2013-06-09 20:42:00,
2013-06-09 16:47:00,73.0,54.4,30.23,NNW,338,2.6,2.6,52,0.00,,---,0.00,VWS V14.01,2013-06-09 20:47:00,
2013-06-09 16:52:00,72.6,53.5,30.22,NW,315,0.0,0.0,51,0.00,,---,0.00,VWS V14.01,2013-06-09 20:52:00,
2013-06-09 16:57:00,72.3,53.7,30.23,NW,315,0.0,0.0,52,0.00,,---,0.00,VWS V14.01,2013-06-09 20:57:00,
2013-06-09 17:02:00,72.1,54.6,30.23,NW,315,0.0,0.0,54,0.00,,---,0.00,VWS V14.01,2013-06-09 21:02:00,
2013-06-09 17:07:00,72.3,54.7,30.22,ENE,68,0.0,0.0,54,0.00,,---,0.00,VWS V14.01,2013-06-09 21:07:00,
2013-06-09 17:12:00,72.1,54.6,30.23,SE,135,0.0,0.0,54,0.00,,---,0.00,VWS V14.01,2013-06-09 21:12:00,
2013-06-09 17:17:00,72.1,54.6,30.23,SW,225,0.0,0.0,54,0.00,,---,0.00,VWS V14.01,2013-06-09 21:17:00,
2013-06-09 17:22:00,72.1,54.6,30.23,SW,225,0.0,0.0,54,0.00,,---,0.00,VWS V14.01,2013-06-09 21:22:00,
2013-06-09 17:27:00,72.1,54.0,30.23,NW,315,0.0,0.0,53,0.00,,---,0.00,VWS V14.01,2013-06-09 21:27:00,
2013-06-09 17:32:00,72.1,53.5,30.23,NW,315,0.0,0.0,52,0.00,,---,0.00,VWS V14.01,2013-06-09 21:32:00,
2013-06-09 17:37:00,71.9,52.8,30.23,NW,315,0.0,0.0,51,0.00,,---,0.00,VWS V14.01,2013-06-09 21:37:00,
2013-06-09 17:42:00,71.9,52.3,30.23,NW,315,0.0,0.0,50,0.00,,---,0.00,VWS V14.01,2013-06-09 21:42:00,
2013-06-09 17:47:00,71.7,52.6,30.22,WNW,292,0.0,0.0,51,0.00,,---,0.00,VWS V14.01,2013-06-09 21:47:00,
2013-06-09 17:52:00,71.7,52.6,30.23,WNW,292,0.0,0.0,51,0.00,,---,0.00,VWS V14.01,2013-06-09 21:52:00,
2013-06-09 17:57:00,71.7,53.2,30.22,WNW,292,0.0,0.0,52,0.00,,---,0.00,VWS V14.01,2013-06-09 21:57:00,
2013-06-09 18:02:00,71.7,53.7,30.22,WNW,292,0.0,0.0,53,0.00,,---,0.00,VWS V14.01,2013-06-09 22:02:00,
2013-06-09 18:07:00,71.7,53.7,30.23,WNW,292,0.0,0.0,53,0.00,,---,0.00,VWS V14.01,2013-06-09 22:07:00,
2013-06-09 18:12:00,71.4,53.4,30.23,WNW,292,0.0,0.0,53,0.00,,---,0.00,VWS V14.01,2013-06-09 22:12:00,
2013-06-09 18:17:00,71.2,53.2,30.23,WNW,292,0.0,0.0,53,0.00,,---,0.00,VWS V14.01,2013-06-09 22:17:00,
2013-06-09 18:22:00,71.2,53.2,30.23,WNW,292,0.0,0.0,53,0.00,,---,0.00,VWS V14.01,2013-06-09 22:22:00,
2013-06-09 18:27:00,70.8,53.3,30.23,WNW,292,0.0,0.0,54,0.00,,---,0.00,VWS V14.01,2013-06-09 22:27:00,
2013-06-09 18:32:00,70.7,52.8,30.23,WNW,292,0.0,0.0,53,0.00,,---,0.00,VWS V14.01,2013-06-09 22:32:00,
2013-06-09 18:37:00,70.3,52.4,30.23,WNW,292,0.0,0.0,53,0.00,,---,0.00,VWS V14.01,2013-06-09 22:37:00,
2013-06-09 18:42:00,70.1,52.2,30.23,WNW,292,0.0,0.0,53,0.00,,---,0.00,VWS V14.01,2013-06-09 22:42:00,
2013-06-09 18:47:00,69.9,51.5,30.23,WNW,292,0.0,0.0,52,0.00,,---,0.00,VWS V14.01,2013-06-09 22:47:00,
2013-06-09 18:52:00,69.6,51.2,30.23,WNW,292,0.0,0.0,52,0.00,,---,0.00,VWS V14.01,2013-06-09 22:52:00,
2013-06-09 18:57:00,69.6,51.2,30.23,WNW,292,0.0,0.0,52,0.00,,---,0.00,VWS V14.01,2013-06-09 22:57:00,
2013-06-09 19:02:00,69.2,50.8,30.23,WNW,292,0.0,0.0,52,0.00,,---,0.00,VWS V14.01,2013-06-09 23:02:00,
2013-06-09 19:07:00,68.9,50.6,30.23,WNW,292,0.0,0.0,52,0.00,,---,0.00,VWS V14.01,2013-06-09 23:07:00,
2013-06-09 19:12:00,68.7,50.9,30.24,WNW,292,0.0,0.0,53,0.00,,---,0.00,VWS V14.01,2013-06-09 23:12:00,
2013-06-09 19:17:00,68.5,50.7,30.23,WNW,292,0.0,0.0,53,0.00,,---,0.00,VWS V14.01,2013-06-09 23:17:00,
2013-06-09 19:22:00,68.5,51.2,30.24,WNW,292,0.0,0.0,54,0.00,,---,0.00,VWS V14.01,2013-06-09 23:22:00,
2013-06-09 19:27:00,68.1,50.8,30.24,WNW,292,0.0,0.0,54,0.00,,---,0.00,VWS V14.01,2013-06-09 23:27:00,
2013-06-09 19:32:00,68.0,51.2,30.24,WNW,292,0.0,0.0,55,0.00,,---,0.00,VWS V14.01,2013-06-09 23:32:00,
2013-06-09 19:37:00,67.8,51.5,30.24,WNW,292,0.0,0.0,56,0.00,,---,0.00,VWS V14.01,2013-06-09 23:37:00,
2013-06-09 19:42:00,67.6,51.8,30.24,WNW,292,0.0,0.0,57,0.00,,---,0.00,VWS V14.01,2013-06-09 23:42:00,
2013-06-09 19:47:00,67.6,51.8,30.25,WNW,292,0.0,0.0,57,0.00,,---,0.00,VWS V14.01,2013-06-09 23:47:00,
2013-06-09 19:52:00,67.2,51.9,30.25,WNW,292,0.0,0.0,58,0.00,,---,0.00,VWS V14.01,2013-06-09 23:52:00,
2013-06-09 19:57:00,67.1,51.8,30.25,WNW,292,0.0,0.0,58,0.00,,---,0.00,VWS V14.01,2013-06-09 23:57:00,
2013-06-09 20:02:00,66.7,51.9,30.25,WNW,292,0.0,0.0,59,0.00,,---,0.00,VWS V14.01,2013-06-10 00:02:00,
2013-06-09 20:07:00,66.7,51.9,30.25,WNW,292,0.0,0.0,59,0.00,,---,0.00,VWS V14.01,2013-06-10 00:07:00,
2013-06-09 20:12:00,66.3,52.0,30.25,WNW,292,0.0,0.0,60,0.00,,---,0.00,VWS V14.01,2013-06-10 00:12:00,
2013-06-09 20:17:00,66.0,52.2,30.25,WNW,292,0.0,0.0,61,0.00,,---,0.00,VWS V14.01,2013-06-10 00:17:00,
2013-06-09 20:22:00,65.8,51.5,30.26,WNW,292,0.0,0.0,60,0.00,,---,0.00,VWS V14.01,2013-06-10 00:22:00,
2013-06-09 20:27:00,65.4,51.6,30.26,WNW,292,0.0,0.0,61,0.00,,---,0.00,VWS V14.01,2013-06-10 00:27:00,
2013-06-09 20:32:00,65.3,51.5,30.26,WNW,292,0.0,0.0,61,0.00,,---,0.00,VWS V14.01,2013-06-10 00:32:00,
2013-06-09 20:37:00,64.9,51.6,30.26,WNW,292,0.0,0.0,62,0.00,,---,0.00,VWS V14.01,2013-06-10 00:37:00,
2013-06-09 20:42:00,64.5,51.2,30.26,WNW,292,0.0,0.0,62,0.00,,---,0.00,VWS V14.01,2013-06-10 00:42:00,
2013-06-09 20:47:00,64.2,51.4,30.26,WNW,292,0.0,0.0,63,0.00,,---,0.00,VWS V14.01,2013-06-10 00:47:00,
2013-06-09 20:52:00,63.6,50.8,30.26,WNW,292,0.0,0.0,63,0.00,,---,0.00,VWS V14.01,2013-06-10 00:52:00,
2013-06-09 20:57:00,63.5,50.7,30.26,WNW,292,0.0,0.0,63,0.00,,---,0.00,VWS V14.01,2013-06-10 00:57:00,
2013-06-09 21:02:00,62.9,50.5,30.26,WNW,292,0.0,0.0,64,0.00,,---,0.00,VWS V14.01,2013-06-10 01:02:00,
2013-06-09 21:07:00,62.7,50.4,30.26,WNW,292,0.0,0.0,64,0.00,,---,0.00,VWS V14.01,2013-06-10 01:07:00,
2013-06-09 21:12:00,62.4,50.1,30.27,WNW,292,0.0,0.0,64,0.00,,---,0.00,VWS V14.01,2013-06-10 01:12:00,
2013-06-09 21:17:00,62.2,50.3,30.27,WNW,292,0.0,0.0,65,0.00,,---,0.00,VWS V14.01,2013-06-10 01:17:00,
2013-06-09 21:22:00,61.7,50.2,30.27,WNW,292,0.0,0.0,66,0.00,,---,0.00,VWS V14.01,2013-06-10 01:22:00,
2013-06-09 21:27:00,61.3,49.9,30.27,WNW,292,0.0,0.0,66,0.00,,---,0.00,VWS V14.01,2013-06-10 01:27:00,
2013-06-09 21:32:00,60.9,49.5,30.27,WNW,292,0.0,0.0,66,0.00,,---,0.00,VWS V14.01,2013-06-10 01:32:00,
2013-06-09 21:37:00,60.6,49.2,30.27,WNW,292,0.0,0.0,66,0.00,,---,0.00,VWS V14.01,2013-06-10 01:37:00,
2013-06-09 21:42:00,60.4,49.4,30.28,WNW,292,0.0,0.0,67,0.00,,---,0.00,VWS V14.01,2013-06-10 01:42:00,
2013-06-09 21:47:00,60.0,49.0,30.28,WNW,292,0.0,0.0,67,0.00,,---,0.00,VWS V14.01,2013-06-10 01:47:00,
2013-06-09 21:52:00,59.9,49.3,30.28,WNW,292,0.0,0.0,68,0.00,,---,0.00,VWS V14.01,2013-06-10 01:52:00,
2013-06-09 21:57:00,59.5,48.9,30.28,WNW,292,0.0,0.0,68,0.00,,---,0.00,VWS V14.01,2013-06-10 01:57:00,
2013-06-09 22:02:00,59.1,48.6,30.29,WNW,292,0.0,0.0,68,0.00,,---,0.00,VWS V14.01,2013-06-10 02:02:00,
2013-06-09 22:07:00,58.8,48.7,30.29,WNW,292,0.0,0.0,69,0.00,,---,0.00,VWS V14.01,2013-06-10 02:07:00,
2013-06-09 22:12:00,58.8,48.7,30.29,WNW,292,0.0,0.0,69,0.00,,---,0.00,VWS V14.01,2013-06-10 02:12:00,
2013-06-09 22:17:00,58.6,48.5,30.29,WNW,292,0.0,0.0,69,0.00,,---,0.00,VWS V14.01,2013-06-10 02:17:00,
2013-06-09 22:22:00,58.2,48.1,30.29,WNW,292,0.0,0.0,69,0.00,,---,0.00,VWS V14.01,2013-06-10 02:22:00,
2013-06-09 22:27:00,58.1,48.4,30.29,WNW,292,0.0,0.0,70,0.00,,---,0.00,VWS V14.01,2013-06-10 02:27:00,
2013-06-09 22:32:00,57.7,48.0,30.29,WNW,292,0.0,0.0,70,0.00,,---,0.00,VWS V14.01,2013-06-10 02:32:00,
2013-06-09 22:37:00,57.5,47.8,30.29,WNW,292,0.0,0.0,70,0.00,,---,0.00,VWS V14.01,2013-06-10 02:37:00,
2013-06-09 22:42:00,57.3,48.0,30.30,WNW,292,0.0,0.0,71,0.00,,---,0.00,VWS V14.01,2013-06-10 02:42:00,
2013-06-09 22:47:00,57.0,47.7,30.30,WNW,292,0.0,0.0,71,0.00,,---,0.00,VWS V14.01,2013-06-10 02:47:00,
2013-06-09 22:52:00,57.0,47.7,30.30,WNW,292,0.0,0.0,71,0.00,,---,0.00,VWS V14.01,2013-06-10 02:52:00,
2013-06-09 22:57:00,56.8,47.5,30.30,WNW,292,0.0,0.0,71,0.00,,---,0.00,VWS V14.01,2013-06-10 02:57:00,
2013-06-09 23:02:00,56.4,47.1,30.30,WNW,292,0.0,0.0,71,0.00,,---,0.00,VWS V14.01,2013-06-10 03:02:00,
2013-06-09 23:07:00,56.3,47.4,30.30,WNW,292,0.0,0.0,72,0.00,,---,0.00,VWS V14.01,2013-06-10 03:07:00,
2013-06-09 23:12:00,56.1,47.2,30.30,WNW,292,0.0,0.0,72,0.00,,---,0.00,VWS V14.01,2013-06-10 03:12:00,
2013-06-09 23:17:00,55.7,46.8,30.29,WNW,292,0.0,0.0,72,0.00,,---,0.00,VWS V14.01,2013-06-10 03:17:00,
2013-06-09 23:22:00,55.5,46.6,30.28,WNW,292,0.0,0.0,72,0.00,,---,0.00,VWS V14.01,2013-06-10 03:22:00,
2013-06-09 23:27:00,55.4,46.5,30.29,WNW,292,0.0,0.0,72,0.00,,---,0.00,VWS V14.01,2013-06-10 03:27:00,
2013-06-09 23:32:00,55.2,46.3,30.29,WNW,292,0.0,0.0,72,0.00,,---,0.00,VWS V14.01,2013-06-10 03:32:00,
2013-06-09 23:37:00,55.0,46.2,30.29,WNW,292,0.0,0.0,72,0.00,,---,0.00,VWS V14.01,2013-06-10 03:37:00,
2013-06-09 23:42:00,54.8,46.3,30.30,WNW,292,0.0,0.0,73,0.00,,---,0.00,VWS V14.01,2013-06-10 03:42:00,
2013-06-09 23:47:00,54.5,46.0,30.30,WNW,292,0.0,0.0,73,0.00,,---,0.00,VWS V14.01,2013-06-10 03:47:00,
2013-06-09 23:52:00,54.3,46.2,30.30,WNW,292,0.0,0.0,74,0.00,,---,0.00,VWS V14.01,2013-06-10 03:52:00,
2013-06-09 23:57:00,54.3,46.2,30.30,WNW,292,0.0,0.0,74,0.00,,---,0.00,VWS V14.01,2013-06-10 03:57:00,